[[{"header":{"parameterUnit":"m.s-1","parameterCategory":1,"la1":30.2991,"la2":30.254,"lo1":-89.0895,"lo2":-89.0444,"dy":0.0017,"dx":0.0017,"nx":28,"ny":28,"refTime":"2024-04-06T09:00:00:Z","depth":0,"parameterNumber":2,"parameterNumberName":"U-component_of_WINDS"},"data":[0,0,0,0,0,0,0,0,0,0,0,0,0,0,0,0,0,0,0,0,0,0,0,0,0,0,0,0,0,0,0,0,0,0,0,0,0,0,0,0,0,0,0,0,0,0,0,0,0,0,0,0,0,0,0,0,0,0,-3.9114,-3.9114,0,-3.9161,-3.9161,-3.9162,-3.9137,-3.9136,-3.9135,-3.9134,-3.9179,-3.9181,-3.9184,0,0,0,0,0,0,0,0,0,0,0,0,0,-3.9,-3.9002,-3.9113,-3.9114,-3.9115,-3.9161,-3.9161,-3.9162,-3.9137,-3.9136,-3.9134,-3.9133,-3.9178,-3.9181,-3.9184,0,0,0,0,0,0,0,0,0,0,0,0,0,-3.9048,-3.9003,-3.9113,-3.9108,-3.9108,-3.916,-3.9161,-3.9162,-3.9138,-3.9136,-3.9134,-3.9132,-3.9177,-3.9181,-3.9184,-3.9243,0,0,-3.9195,-3.9197,0,0,0,0,0,0,0,0,-3.9046,-3.9053,-3.9108,-3.9109,-3.9109,-3.9141,-3.9138,-3.9189,-3.9138,-3.9126,-3.9133,-3.9131,-3.9168,-3.9172,-3.9185,-3.9246,-3.9248,-3.9195,-3.9197,-3.9199,-3.92,0,0,0,0,0,0,0,-3.9042,-3.905,-3.9132,-3.9109,-3.9109,-3.9103,-3.9107,-3.9147,-3.9157,-3.9127,-3.9126,-3.9132,-3.9167,-3.9181,-3.9186,-3.9248,-3.9195,-3.9198,-3.9201,-3.9202,-3.9359,-3.9361,0,0,0,0,0,0,-3.904,-3.9048,-3.9131,-3.9133,-3.9072,-3.9106,-3.9112,-3.9133,-3.9156,-3.9158,-3.9133,-3.913,-3.9176,-3.9181,-3.9187,-3.9257,-3.9199,-3.9202,-3.9204,-3.9357,-3.936,-3.9362,0,0,0,0,0,0,-3.9037,-3.9047,-3.9129,-3.909,-3.91,-3.911,-3.9134,-3.9134,-3.9148,-3.9161,-3.9162,-3.9146,-3.9175,-3.9182,-3.923,-3.9258,-3.9204,-3.9207,-3.9355,-3.9358,-3.9361,-3.9397,0,0,0,0,0,0,-3.9034,-3.9047,-3.907,-3.9091,-3.9102,-3.9171,-3.9136,-3.9137,-3.9155,-3.9152,-3.9173,-3.9175,-3.9174,-3.9224,-3.9233,-3.9262,-3.921,-3.9352,-3.9356,-3.936,-3.9393,-3.9401,-3.9408,0,0,0,0,0,-3.903,-3.9078,-3.9071,-3.9081,-3.9131,-3.9173,-3.9179,-3.9178,-3.9157,-3.918,-3.9188,-3.9174,-3.9254,-3.923,-3.9239,-3.9269,-3.935,-3.9355,-3.936,-3.939,-3.94,-3.9407,0,0,0,0,0,0,-3.9058,-3.908,-3.9073,-3.9129,-3.9149,-3.9169,-3.9197,-3.9188,-3.9214,-3.9209,-3.9207,-3.9212,-3.9261,-3.927,-3.9242,-3.9328,-3.9299,-3.9306,-3.9319,-3.9328,-3.9335,-3.933,-3.9213,0,0,0,0,0,-3.9071,-3.9103,-3.9121,-3.9168,-3.9179,-3.9187,-3.9205,-3.9202,-3.9223,-3.9231,-3.9242,-3.9262,-3.9292,-3.9311,-3.9339,-3.9396,-3.9399,-3.9422,-3.9429,-3.9434,-3.9439,-3.9469,-3.9478,-3.9377,-3.9377,-3.9377,0,0,-3.9097,-3.9113,-3.9134,-3.9174,-3.919,-3.9222,-3.9194,-3.923,-3.9253,-3.9236,-3.9281,-3.9291,-3.9313,-3.9365,-3.9388,-3.9374,-3.9469,-3.944,-3.9445,-3.9446,-3.9474,-3.9484,-3.9492,-3.938,-3.938,-3.9379,0,0,-3.9161,-3.9178,-3.9218,-3.9235,-3.9259,-3.9264,-3.9274,-3.9295,-3.9301,-3.9347,-3.9334,-3.9363,-3.9414,-3.9429,-3.9444,-3.9516,-3.9503,-3.9526,-3.9561,-3.959,-3.9598,-3.9605,-3.9628,-3.9637,-3.9531,-3.9531,-3.9531,0,-3.919,-3.9239,-3.924,-3.9277,-3.9294,-3.9282,-3.9323,-3.9339,-3.937,-3.9382,-3.9367,-3.9431,-3.9445,-3.95,-3.9518,-3.9531,-3.9541,-3.9521,-3.9597,-3.9604,-3.9611,-3.9633,-3.9642,-3.9533,-3.9533,-3.9533,-3.9533,0,-3.9273,-3.9307,-3.9337,-3.9369,-3.9391,-3.9429,-3.9435,-3.9457,-3.9454,-3.946,-3.9506,-3.9523,-3.9554,-3.9568,-3.9564,-3.9622,-3.9612,-3.9598,-3.9568,-3.9623,-3.9643,-3.9652,-3.9537,-3.9536,-3.9535,-3.9535,0,0,-3.9352,-3.9385,-3.9396,-3.941,-3.9437,-3.9463,-3.9502,-3.9533,-3.955,-3.9574,-3.9604,-3.9649,-3.9635,-3.9652,-3.9651,-3.9677,-3.973,-3.9658,-3.9658,-3.9668,-3.9793,-3.9801,-3.9811,-3.9723,-3.9725,-3.9726,-3.979,0,-3.9416,-3.9483,-3.9485,-3.9546,-3.9577,-3.9567,-3.96,-3.9619,-3.9627,-3.9654,-3.9662,-3.9693,-3.9674,-3.9684,-3.9709,-3.9718,-3.9754,-3.9714,-3.9749,-3.9751,-3.9741,-3.9823,-3.9832,-3.9891,-3.9798,-3.98,-3.9801,0,-3.9498,-3.9524,-3.9588,-3.9611,-3.9624,-3.9653,-3.9682,-3.9709,-3.9731,-3.9735,-3.9754,-3.975,-3.9788,-3.976,-3.9811,-3.9784,-3.9799,-3.9806,-3.9808,-3.9809,-3.9777,-3.9822,-3.991,-3.9918,-3.9814,-3.9813,-3.9812,0,-3.9546,-3.9598,-3.9643,-3.9656,-3.9683,-3.9704,-3.9717,-3.9737,-3.9756,-3.9781,-3.9793,-3.9822,-3.9837,-3.986,-3.9863,-3.9843,-3.9914,-3.9887,-3.9916,-3.9916,-3.9929,-3.9927,-4.0017,-3.9944,-3.9944,-3.9944,-3.9944,0,-3.9615,-3.9654,-3.9665,-3.9692,-3.9735,-3.9738,-3.9781,-3.9791,-3.981,-3.9838,-3.9832,-3.9859,-3.9863,-3.989,-3.9893,-3.9934,-3.9942,-3.9945,-3.9945,-3.9944,-3.9943,-3.9951,-3.9946,-3.9946,-3.9946,-3.9945,-3.9945,0,-3.9675,-3.9684,-3.9732,-3.9755,-3.9761,-3.9792,-3.9811,-3.9837,-3.9845,-3.9881,-3.9889,-3.9902,-3.9934,-3.994,-3.9978,-3.998,-4.0028,-4.0025,-4.002,-4.0019,-4.0047,-4.0043,-4.0143,-4.0155,-4.0077,-4.0078,-4.0078,0,-3.9716,-3.9746,-3.9773,-3.9792,-3.9805,-3.9836,-3.9855,-3.986,-3.988,-3.9908,-3.993,-3.9962,-3.9987,-4.0039,-4.005,-4.0079,-4.0075,-4.0108,-4.0079,-4.0077,-4.0072,-4.0069,-4.0071,-4.0112,-4.0113,-4.0114,-4.0115,0,-3.9788,-3.9792,-3.982,-3.985,-3.9874,-3.9898,-3.992,-3.9936,-3.9944,-3.9967,-4.0,-4.002,-4.0059,-4.009,-4.0119,-4.0131,-4.0123,-4.0124,-4.0132,-4.013,-4.0125,-4.0125,-4.0032,-4.0121,-4.012,-4.012,-4.012,-4.0119,-3.9838,-3.9864,-3.9887,-3.9918,-3.9937,-3.9958,-3.9983,-3.9995,-4.0023,-4.0055,-4.0057,-4.0093,-4.0114,-4.0153,-4.0167,-4.0194,-4.0184,-4.0196,-4.0198,-4.02,-4.0201,-4.0123,-4.02,-4.02,-4.02,-4.0199,-4.0199,0,-3.9908,-3.9923,-3.9952,-3.9984,-4.0009,-4.0003,-4.0027,-4.0048,-4.008,-4.0101,-4.0127,-4.0165,-4.0195,-4.021,-4.024,-4.0259,-4.0256,-4.0266,-4.0263,-4.0266,-4.021,-4.0199,-4.0268,-4.0268,-4.0268,-4.0268,-4.0268,-4.0268,-3.9947,-3.9989,-3.9996,-4.0047,-4.0061,-4.0097,-4.0111,-4.0131,-4.0148,-4.019,-4.0216,-4.0226,-4.0245,-4.0276,-4.0303,-4.0307,-4.0317,-4.0328,-4.033,-4.0277,-4.027,-4.0263,-4.0252,-4.0331,-4.0331,-4.0382,-4.0383,-4.0383]},{"header":{"parameterUnit":"m.s-1","parameterCategory":1,"la1":30.2991,"la2":30.254,"lo1":-89.0895,"lo2":-89.0444,"dy":0.0017,"dx":0.0017,"nx":28,"ny":28,"refTime":"2024-04-06T09:00:00:Z","depth":0,"parameterNumber":3,"parameterNumberName":"V-component_of_WINDS"},"data":[0,0,0,0,0,0,0,0,0,0,0,0,0,0,0,0,0,0,0,0,0,0,0,0,0,0,0,0,0,0,0,0,0,0,0,0,0,0,0,0,0,0,0,0,0,0,0,0,0,0,0,0,0,0,0,0,0,0,4.4073,4.4073,0,4.4068,4.4068,4.4068,4.4086,4.4087,4.4087,4.4088,4.4077,4.4076,4.4075,0,0,0,0,0,0,0,0,0,0,0,0,0,4.4097,4.4097,4.4073,4.4073,4.4073,4.4068,4.4068,4.4068,4.4086,4.4087,4.4088,4.4088,4.4077,4.4076,4.4075,0,0,0,0,0,0,0,0,0,0,0,0,0,4.4089,4.4097,4.4073,4.4082,4.4083,4.4068,4.4068,4.4068,4.4086,4.4087,4.4088,4.4089,4.4078,4.4076,4.4075,4.405,0,0,4.4071,4.4071,0,0,0,0,0,0,0,0,4.4089,4.4088,4.4081,4.4081,4.4082,4.4079,4.4072,4.4062,4.4086,4.4085,4.4088,4.4089,4.4076,4.4075,4.4072,4.4049,4.4049,4.4071,4.407,4.407,4.4069,0,0,0,0,0,0,0,4.409,4.4088,4.4071,4.4081,4.4082,4.4085,4.4085,4.407,4.4075,4.4085,4.4086,4.4086,4.4077,4.4073,4.4072,4.4049,4.4071,4.407,4.4069,4.4069,4.4009,4.4008,0,0,0,0,0,0,4.409,4.4089,4.4071,4.4071,4.4088,4.4084,4.4084,4.4079,4.4076,4.4076,4.4085,4.4086,4.4075,4.4074,4.4072,4.4044,4.407,4.4069,4.4068,4.4009,4.4008,4.4007,0,0,0,0,0,0,4.409,4.4088,4.4071,4.408,4.4078,4.4083,4.4077,4.4078,4.4075,4.4076,4.4077,4.408,4.4076,4.4074,4.4056,4.4044,4.4068,4.4067,4.401,4.4009,4.4008,4.3988,0,0,0,0,0,0,4.4091,4.4088,4.4079,4.408,4.4078,4.4057,4.4076,4.4078,4.4073,4.4075,4.4072,4.4072,4.4076,4.4058,4.4055,4.4043,4.4066,4.4011,4.401,4.4008,4.399,4.3986,4.3983,0,0,0,0,0,4.4092,4.4072,4.4078,4.4076,4.4067,4.4056,4.4055,4.4061,4.4072,4.4063,4.4064,4.4072,4.4046,4.4056,4.4053,4.404,4.4012,4.401,4.4008,4.3991,4.3987,4.3983,0,0,0,0,0,0,4.4066,4.4072,4.4079,4.4059,4.4058,4.4059,4.4048,4.4056,4.405,4.4051,4.4059,4.4058,4.404,4.4038,4.4049,4.4017,4.4031,4.4028,4.4019,4.4015,4.4012,4.4012,4.4065,0,0,0,0,0,4.4059,4.4051,4.4056,4.4038,4.4037,4.4043,4.4038,4.4044,4.4041,4.404,4.404,4.4036,4.4027,4.4021,4.4012,4.399,4.399,4.398,4.3976,4.3974,4.3971,4.3962,4.3958,4.4001,4.4001,4.4001,0,0,4.4042,4.4045,4.4038,4.4033,4.4032,4.4023,4.4041,4.403,4.4024,4.4037,4.4023,4.4022,4.4019,4.4,4.3991,4.3998,4.396,4.3971,4.3969,4.3968,4.3959,4.3955,4.3951,4.4,4.4,4.4,0,0,4.4008,4.4009,4.3995,4.3995,4.3995,4.4,4.3997,4.3998,4.3999,4.3985,4.3996,4.3988,4.3972,4.397,4.3966,4.3936,4.3944,4.3933,4.3915,4.3906,4.3903,4.39,4.389,4.3887,4.3931,4.393,4.393,0,4.3987,4.3976,4.3986,4.3977,4.3974,4.3989,4.3976,4.3974,4.397,4.3968,4.3977,4.396,4.3958,4.394,4.3933,4.3929,4.3926,4.3933,4.3903,4.39,4.3897,4.3888,4.3884,4.3929,4.3929,4.393,4.393,0,4.3951,4.3943,4.3932,4.3932,4.3928,4.3916,4.3925,4.392,4.3927,4.393,4.3917,4.3916,4.3909,4.3905,4.391,4.3888,4.3893,4.3902,4.3915,4.3892,4.3883,4.388,4.3928,4.3928,4.3928,4.3929,0,0,4.3899,4.3907,4.3903,4.3905,4.3907,4.3901,4.389,4.3886,4.3882,4.388,4.3871,4.386,4.3869,4.3866,4.3871,4.3863,4.3841,4.3873,4.3873,4.3868,4.3819,4.3813,4.3809,4.3847,4.3846,4.3846,4.382,0,4.3867,4.3851,4.3862,4.3843,4.3837,4.3853,4.3844,4.3845,4.3849,4.3843,4.3847,4.3839,4.3851,4.385,4.3842,4.3845,4.3831,4.3847,4.3839,4.3838,4.384,4.3804,4.3797,4.3772,4.3816,4.3816,4.3816,0,4.3826,4.3826,4.3808,4.3816,4.3813,4.3805,4.3804,4.3799,4.38,4.3804,4.3802,4.381,4.3801,4.3815,4.3802,4.3813,4.381,4.3811,4.381,4.381,4.3825,4.3803,4.3765,4.3761,4.381,4.3811,4.3811,0,4.3792,4.3787,4.3776,4.3777,4.3784,4.3779,4.3781,4.3784,4.3782,4.378,4.3779,4.3775,4.3773,4.3771,4.3778,4.3788,4.3765,4.3779,4.3767,4.3767,4.3761,4.3761,4.3722,4.3759,4.3759,4.3759,4.3759,0,4.3756,4.3744,4.3762,4.3755,4.3744,4.3756,4.3744,4.3748,4.3751,4.3745,4.3758,4.3752,4.3762,4.3758,4.3763,4.3753,4.3751,4.3754,4.3755,4.3753,4.3753,4.3751,4.3753,4.3758,4.3758,4.3758,4.3758,0,4.3714,4.3726,4.3716,4.3725,4.3727,4.3719,4.3726,4.372,4.3727,4.372,4.3719,4.3728,4.3723,4.3731,4.3726,4.373,4.3716,4.372,4.3716,4.3718,4.3706,4.3708,4.3665,4.366,4.3699,4.3699,4.3698,0,4.3691,4.3683,4.3693,4.3692,4.3695,4.3691,4.3691,4.3703,4.3701,4.3705,4.3699,4.3696,4.3694,4.3686,4.3692,4.3689,4.3694,4.3679,4.3693,4.3692,4.3695,4.3695,4.3695,4.3676,4.3675,4.3675,4.3675,0,4.3648,4.3655,4.3654,4.3656,4.3656,4.3657,4.3659,4.3657,4.367,4.3668,4.3665,4.3664,4.3662,4.3659,4.3659,4.366,4.367,4.3671,4.3668,4.3665,4.3664,4.3666,4.3709,4.3671,4.3671,4.3672,4.3672,4.3672,4.3615,4.3611,4.3618,4.3618,4.3622,4.3624,4.362,4.3628,4.3626,4.3627,4.3634,4.363,4.3634,4.3635,4.3636,4.3633,4.3639,4.3635,4.3634,4.3633,4.3632,4.3665,4.3632,4.3632,4.3633,4.3633,4.3633,0,4.3574,4.3581,4.3581,4.3585,4.3585,4.3597,4.3601,4.36,4.3597,4.3601,4.36,4.3598,4.3596,4.3603,4.3603,4.3599,4.3603,4.3598,4.3599,4.3599,4.3625,4.3628,4.3595,4.3595,4.3595,4.3595,4.3595,4.3595,4.3553,4.3547,4.3555,4.3551,4.3557,4.3555,4.3557,4.3559,4.3563,4.3561,4.3561,4.3566,4.3571,4.3572,4.3571,4.3573,4.3572,4.3566,4.3569,4.3593,4.3597,4.3601,4.3604,4.3566,4.3566,4.3544,4.3544,4.3544]}]]